Regional Weather Roundup
Issued by NWS

Home | Current Version | Previous Version | Graphics & Text | Print | Product List | Glossary On
Versions: 1 2 3 4 5 6 7 8 9 10 11 12 13 14 15 16 17 18 19 20 21 22 23 24 25 26 27 28 29 30 31 32 33 34 35 36 37 38 39 40 41 42 43 44 45 46 47 48 49 50
000
ASUS43 KFSD 061502
RWRSD

WEATHER ROUNDUP FOR SOUTH DAKOTA
NATIONAL WEATHER SERVICE SIOUX FALLS SD
900 AM CST SAT FEB 06 2016

NOTE: "FAIR" INDICATES FEW OR NO CLOUDS BELOW 12,000 FEET WITH NO
SIGNIFICANT WEATHER AND/OR OBSTRUCTIONS TO VISIBILITY.


SDZ001>005-009-010-012>017-061600-
NORTHWEST AND NORTH CENTRAL SOUTH DAKOTA

CITY           SKY/WX    TMP DP  RH WIND       PRES   REMARKS
BUFFALO          N/A     34  20  56 W21       29.85F WCI  22
FAITH            N/A     32  20  61 SW13      29.93F WCI  22
MOBRIDGE       CLOUDY    31  24  75 SE7       29.88F WCI  24
$$

SDZ012>016-024>037-041>051-057-063-072>074-061600-
SOUTHWEST AND SOUTH CENTRAL SOUTH DAKOTA

CITY           SKY/WX    TMP DP  RH WIND       PRES   REMARKS
RAPID CTY ARPT CLOUDY    33  23  66 CALM      30.00S
PIERRE         CLOUDY    31  20  63 W18       29.97F WCI  19
CUSTER         CLOUDY    34  15  46 W15G24    30.02F WCI  24
ELLSWORTH AFB  CLOUDY    36  22  55 SW8       29.98S
PHILIP         CLEAR     31  21  66 W13       30.01F WCI  21
PINE RIDGE     CLOUDY    28  17  63 W12       30.10S WCI  18
WINNER         FAIR      31  18  58 SW14      30.02F WCI  21
$$

SDZ004>011-016>023-039-040-061600-
NORTHEAST SOUTH DAKOTA

CITY           SKY/WX    TMP DP  RH WIND       PRES   REMARKS
ABERDEEN       CLOUDY    28  23  81 S13       29.93F WCI  17
WATERTOWN      CLOUDY    26  21  81 S14       29.96F WCI  14
BROOKINGS      CLOUDY    23  21  92 S10       30.01F WCI  12
SISSETON         N/A     33  24  69 SW16G25   29.90F WCI  23
$$

SDZ017-020-022-023-036>040-048>070-061600-
SOUTHEAST SOUTH DAKOTA

CITY           SKY/WX    TMP DP  RH WIND       PRES   REMARKS
SIOUX FALLS    CLOUDY    22  19  89 S9        30.08F WCI  12
HURON          CLOUDY    25  20  81 S10       30.01F WCI  15
MITCHELL       MOSUNNY   27  21  78 S12       30.05F WCI  17
YANKTON        CLOUDY    18  16  93 CALM      30.12F
$$

ABBREVIATIONS USED IN REMARKS
   TC - TEMPERATURE IN CELSIUS
  WCI - WIND CHILL INDEX
   HX - HEAT INDEX
  VSB - VISIBILITY




USA.gov is the U.S. government's official web portal to all federal, state and local government web resources and services.